Location: Alphen
(52.1351°N, 4.6549°E)
Time: 01:26:54
(UTC+00:00)

Cosmos 2360 Rocket - Pass Details

Date: 27 January 2021
Orbit: 832 x 846 km, 71.0° (Epoch: 26 February)

Event Time Altitude Azimuth Distance (km) Brightness Sun altitude
Exits shadow 04:15:13 23° 357° (N) 1,705 3.8 -29.5°
Drops below altitude 10° 04:17:57 10° 20° (NNE) 2,470 4.9 -29.1°
Sets 04:20:43 0° 31° (NNE) 3,410 5.8 -28.7°
